Regional Weather Roundup
Issued by NWS

Home | Current Version | Previous Version | Text Only | Print | Product List | Glossary On
Versions: 1 2 3 4 5 6 7 8 9 10 11 12 13 14 15 16 17 18 19 20 21 22 23 24 25 26 27 28 29 30 31 32 33 34 35 36 37 38 39 40 41 42 43 44 45 46 47 48 49 50
000
ASUS43 KTOP 030859
RWRKS

WEATHER ROUNDUP FOR KANSAS
NATIONAL WEATHER SERVICE GOODLAND KS
400 AM CDT FRI JUL 03 2015

NOTE:  "FAIR" INDICATES FEW OR NO CLOUDS BELOW 12,000 FEET WITH NO
SIGNIFICANT WEATHER AND/OR OBSTRUCTIONS TO VISIBILITY.

KSZ001>006-013>018-027>032-041>047-031000-
NORTHWEST KANSAS

CITY           SKY/WX    TMP DP  RH WIND       PRES   REMARKS
GOODLAND       CLEAR     62  57  83 CALM      30.09S
HAYS           CLEAR     64  57  77 N7        29.99S
HILL CITY      CLEAR     62  59  90 N6        30.01S
RUSSELL        CLEAR     65  63  93 NW5       29.96S
$$

KSZ061>065-074>080-084>089-031000-
SOUTHWEST KANSAS

CITY           SKY/WX    TMP DP  RH WIND       PRES   REMARKS
DODGE CITY     CLEAR     65  62  90 NW5       30.00F
ELKHART          N/A     65  59  81 W7          N/A
GARDEN CITY    CLEAR     66  63  90 N5        30.03F
GREAT BEND     PTCLDY    66  63  88 NW7       29.97F
LIBERAL        CLEAR     64  61  88 N6        30.04S
$$

KSZ066>073-081>083-090>101-031000-
SOUTHEAST KANSAS

CITY           SKY/WX    TMP DP  RH WIND       PRES   REMARKS
CHANUTE        FOG       69  68  96 NE3       29.90S VSB 1/2
COFFEYVILLE    PTCLDY    70  69  97 CALM      29.88F
HUTCHINSON     CLEAR     68  64  87 NW7       29.93S
MEDICINE LODGE   N/A     66  64  93 N3        29.93F
NEWTON         PTCLDY    68  63  83 W5        29.94F
PARSONS        CLOUDY    70  70 100 SE3       29.90F
WICHITA INTL   PTCLDY    68  66  93 CALM      29.91F
WICHITA JABRA  CLEAR     69  67  93 W6        29.92S
WINFIELD       FOG       64  64 100 CALM      29.93R VSB 1/4
$$

KSZ007>012-019>026-033>040-048>060-102>105-031000-
NORTHEAST KANSAS

CITY           SKY/WX    TMP DP  RH WIND       PRES   REMARKS
CONCORDIA      MOCLDY    66  64  93 NW6       29.94S FOG
EMPORIA        PTCLDY    67  66  97 CALM      29.91S
LAWRENCE       LGT RAIN  68  66  93 CALM      29.91F FOG
MANHATTAN      CLOUDY    70  69  97 NE7       29.91F FOG
OLATHE IND     CLOUDY    67  66  97 E6        29.92S
OLATHE EXE     LGT RAIN  67  65  93 E7        29.91F
SALINA         CLEAR     67  63  87 N6        29.94R
TOPEKA BILLARD CLOUDY    69  67  93 E7        29.91S FOG
TOPEKA FORBES  CLOUDY    70  67  90 E6        29.91S FOG
$$



USA.gov is the U.S. government's official web portal to all federal, state and local government web resources and services.